www.pogodaiklimat.ru

Погода и климат >> Архив погоды >> Россия >> Якутия >> Чернышевский


ПОГОДА в Чернышевском

  • Прогноз погоды в Чернышевском
  • Монитор погоды в Чернышевском

АРХИВ ПОГОДЫ в Чернышевском

Время (UTC), дата Ветер
(напр.,м/с)
 
Видим.   Явления Облачность Т
(С)
Тd
(С)
f
(%)
Тe
(С)
Тes
(С)
Комфортность P
(гПа)
Po
(гПа)
Тmin
(С)
Tmax
(С)
R
(мм)
R24
(мм)
S
(см)
12 16.07 ЮВ 1 50 км 3/0
[Ci fib]
+25.3 +7.8 33 +25 +26 комфорт 1012.2 964.8 +26.4
15 16.07 ЮЗ 3 50 км 6/0
[Ci fib]
+22.1 +6.4 36 +23 +23 комфорт 1012.8 964.8
18 16.07 ЮЗ 4 50 км 4/0
[Ci fib]
+20.0 +8.1 46 +21 +21 комфорт 1012.6 964.4
21 16.07 З 4 50 км 3/0
[Ci fib]
+18.9 +10.2 57 +20 +20 1011.9 963.5
00 17.07 З 5 50 км ясно +21.6 +11.3 52 +24 +26 комфорт 1010.6 962.7 +18.5
03 17.07 З 5 10 км дым ясно +26.2 +11.5 40 +27 +33 жарко 1008.4 961.4
06 17.07 З 5 50 км 3/3 600 м
[Cu med, cong]
+28.9 +12.1 35 +30 +34 жарко 1005.6 959.1
09 17.07 С 4 50 км 10/5 600 м
[Cb cap Ac trans Ci fib]
+25.4 +13.7 48 +28 +28 жарко 1005.4 958.4
12 17.07 СЗ 2 50 км {ливн. осадки} 10/0
[Ac trans Ci fib]
+21.2 +16.9 76 +25 +25 комфорт 1006.9 959.3 +30.4 1
15 17.07 С 5
{10}
10 км дым 3/0
[Ci fib]
+17.5 +9.8 61 +17 +17 1009.7 961.2
18 17.07 С 3
{14}
50 км 3/0
[Ci fib]
+11.1 +6.8 75 +9 +9 1013.1 963.3
21 17.07 С 2 50 км дым ясно +9.5 +6.7 83 +8 +8 1014.1 964.0
00 18.07 С 3 50 км 6/6 600 м
[Cu med, cong]
+10.5 +6.4 76 +9 +10 1015.0 965.0 +9.4
03 18.07 С 3 50 км 3/3 1000 м
[Cu hum]
+13.1 +5.1 58 +12 +19 1014.6 965.1
06 18.07 С 3
{10}
50 км ясно +16.6 +3.6 42 +16 +26 1013.7 964.8
09 18.07 С 3 10 км дым ясно +17.8 +2.9 37 +18 +22 1013.3 964.5
12 18.07 С 3 10 км дым ясно +15.4 +2.1 41 +15 +15 1014.6 965.4 +18.2
15 18.07 СВ 3 10 км дым 6/0
[Ci fib]
+11.5 +2.3 53 +10 +10 1016.7 966.8
18 18.07 С 2 50 км 3/0
[Ci fib]
+8.6 +1.5 61 +7 +7 1018.5 968.0
21 18.07 СЗ 2 50 км 3/0
[Ci fib]
+8.0 +1.3 63 +6 +7 1019.7 969.0
00 19.07 В 3 50 км ясно +11.3 +3.6 59 +10 +14 1020.0 969.9 +7.3
03 19.07 СВ 3 50 км 10/6 600 м
[Cu hum Ci fib]
+13.7 +3.8 51 +13 +16 1019.7 970.0
06 19.07 СЗ 2 10 км дым 10/6 600 м
[Cu hum Ac trans Ci fib]
+15.9 +4.1 45 +16 +18 1018.2 969.0
09 19.07 СВ 3 50 км 10/4 600 м
[Sc diur, vesp Ac trans Ci fib]
+17.7 +1.7 34 +18 +19 1017.5 968.5
12 19.07 СВ 3 50 км 4/0
[Ac trans Ci fib]
+17.0 +2.1 37 +17 +17 1017.8 968.8 +17.9
15 19.07 СВ 2 50 км 3/0
[Ci fib]
+12.3 +1.9 49 +12 +12 1020.0 970.1
18 19.07 СВ 2 50 км ясно +10.1 +2.3 58 +9 +9 1022.6 971.2
21 19.07 С 1 50 км 6/0
[Ci fib]
+8.1 +1.7 64 +8 +8 1022.6 971.9
00 20.07 СВ 3 50 км ясно +13.4 +4.3 54 +12 +17 1022.2 972.4 +7.9
03 20.07 В 5-10
{10}
50 км ясно +16.4 +2.9 40 +16 +21 1022.0 972.7
06 20.07 В 3
{10}
50 км ясно +18.4 +1.9 33 +19 +28 1020.8 971.8
09 20.07 ЮВ 5 50 км ясно +19.8 +0.2 27 +20 +22 1019.6 970.9
12 20.07 В 2 50 км ясно +19.3 +1.5 30 +20 +21 1019.1 970.4 +20.4
15 20.07 СВ 1 50 км ясно +15.3 +1.3 39 +16 +16 1021.0 971.5
18 20.07 СВ 2 50 км 3/0
[Ci fib]
+13.2 +1.7 46 +13 +13 1021.4 971.6
21 20.07 СВ 2 50 км 3/0
[Ci fib]
+12.1 +2.1 50 +11 +12 1021.8 971.8
00 21.07 СВ 1 10 км дым ясно +15.1 +4.3 48 +16 +22 1022.1 972.5 +11.3
03 21.07 СВ 2 10 км дым ясно +19.6 +3.6 35 +21 +32 комфорт 1020.3 971.6
06 21.07 В 4 50 км ясно +21.6 +4.5 33 +22 +29 комфорт 1018.4 970.1
09 21.07 В 3 50 км ясно +23.2 +5.0 31 +23 +27 комфорт 1016.8 968.8
12 21.07 В 3 50 км ясно +22.0 +3.2 29 +22 +22 комфорт 1016.2 968.1 +23.5
15 21.07 В 2 50 км ясно +18.2 +2.5 35 +19 +19 1016.9 968.1
18 21.07 В 2 10 км дым ясно +16.5 +3.2 41 +17 +17 1017.1 968.1
21 21.07 СВ 2 10 км дым ясно +15.0 +3.4 46 +15 +15 1017.3 968.0
00 22.07 В 2 10 км дым ясно +18.0 +3.4 38 +19 +23 1016.8 968.0 +14.9
03 22.07 СВ 3 10 км дым ясно +23.6 +7.7 36 +24 +33 комфорт 1015.1 967.3
06 22.07 СВ 4
{10}
10 км дым ясно +25.8 +6.5 29 +25 +33 комфорт 1013.3 966.0
09 22.07 В 3
{10}
50 км 3/0
[Ci fib]
+27.0 +7.1 28 +27 +30 жарко 1011.5 964.4
12 22.07 В 4 10 км дым 10/0
[Ci fib]
+24.4 +6.1 31 +24 +25 комфорт 1011.6 964.1 +27.2
15 22.07 СВ 2 10 км дым 8/0
[Ci fib]
+20.6 +4.3 34 +22 +22 комфорт 1012.3 964.1
18 22.07 СВ 2 10 км дым 4/0
[Ci fib]
+19.2 +4.1 37 +20 +20 1012.5 964.1
21 22.07 СВ 2 10 км дым 3/0
[Ci fib]
+15.8 +5.6 51 +16 +16 1013.2 964.1
00 23.07 В 2 10 км дым ясно +17.8 +8.5 54 +18 +23 1012.8 964.2 +15.8
03 23.07 СВ 3 10 км ясно +23.0 +10.5 45 +25 +34 комфорт 1011.6 963.9
06 23.07 В 4 10 км 10/0
[Ci fib]
+25.3 +9.7 37 +26 +32 жарко 1010.0 962.7

 

Местоположение метеостанции Чернышевский (Якутия, Россия): широта 63.03 долгота 112.40 высота над уровнем моря 422 м.

В архиве по умолчанию представлена погода в Чернышевском за последнюю неделю. Архивные данные за месяц целиком и за предыдущие месяцы, начиная с января 2011 года, Вы можете получить, выбрав интересующий диапазон дат из раскрывающегося списка и нажав кнопку "Ввод!".


*Определитесь, кто Вы:
робот инопланетянин человек

Внимание! Время в таблицах - всемирное. Для получения местного времени необходимо прибавить поправку, которая равна 9 ч.

Смотрите также архив погоды в соседних городах и на ближайших метеорологических станциях:

Погода в Туой-Хае (Якутия, Россия) (83 км)
Погода в Мирном (Якутия, Россия) (90 км)
Погода в Хабардино (Якутия, Россия) (175 км)
Погода в Дорожном (Якутия, Россия) (194 км)
Погода в Крестяхе (Якутия, Россия) (207 км)
Погода в Чумпуруке (Якутия, Россия) (259 км)
Погода в Сунтаре (Якутия, Россия) (283 км)
Погода в Ленске (Якутия, Россия) (286 км)
Погода в Нюрбе (Якутия, Россия) (298 км)
Погода в Ербогачене (Иркутская область, Россия) (301 км)

Пояснения к столбцам:

Ветер - указаны скорость ветра в м/с - средняя за 10 мин, порывы в срок и между сроками (в фигурных скобках) и направление, откуда дует ветер: С - северный, СВ - северо-восточный, В - восточный, ЮВ - юго-восточный, Ю - южный, ЮЗ - юго-западный, З - западный, СЗ - северо-западный.
Видимость - горизонтальная дальность видимости в метрах или километрах. При видимости от 1 до 10 км при отсутствии осадков обычно наблюдается дымка, при ухудшении видимости до 1 км и менее - туман. В сухую погоду видимость может ухудшаться дымом, пылью или мглою.
Явления - указаны атмосферные явления, наблюдавшиеся в срок или в последний час перед сроком; фигурными скобками обозначены явления, наблюдавшиеся между сроками (за 1-3 часа до срока); квадратными скобками обозначены град или гололедные отложения с указанием их диаметра в мм.
Облачность - указаны через наклонную черту общая и нижняя облачность в баллах и высота нижней границы облаков в метрах; квадратными скобками обозначены формы облаков: Ci - перистые, Cs - перисто-слоистые, Cc - перисто-кучевые, Ac - высококучевые, As - высокослоистые, Sc - слоисто-кучевые, Ns - слоисто-дождевые, Cu - кучевые, Cb - кучево-дождевые. Подробнее классификацию облаков см. в Атласе облаков (PDF).
T - Температура воздуха - температура, измеренная на высоте 2 м над землей.
Td - Температура точки росы - температура, при понижении до которой содержащийся в воздухе водяной пар достигнет насыщения.
f - Относительная влажность воздуха - влажноcть воздуха, измеренная на высоте 2 м над землей.
Te - Эффективная температура - температура, которую ощущает одетый по сезону человек в тени. Характеристика душности погоды. При расчете учитывается влияние влажности воздуха и скорости ветра на теплоощущения человека.
Tes - Эффективная температура на солнце - температура, которую ощущает человек, с поправкой на солнечный нагрев. Характеристика знойности погоды. Зависит от высоты солнца над горизонтом, облачности и скорости ветра. Ночью, в пасмурную погоду, а также при ветре 12 м/с и более поправка равна нулю.
P - Атмосферное давление - приведенное к уровню моря атмосферное давление.
Po - Атмосферное давление - измеренное на уровне метеостанции атмосферное давление.
Tmin - Минимальная температура - минимум температуры воздуха на высоте 2 м над землей.
Tmax - Максимальная температура - максимум температуры воздуха на высоте 2 м над землей.
R - Количество осадков - Количество выпавших осадков за период времени, мм. При наведении курсора мыши на число - период времени, за который выпало указанное количество осадков.
R24 - Количество осадков - Количество выпавших осадков за 24 часа, мм.
S - Снежный покров - Высота снежного покрова, см. При наведении курсора мыши на число - состояние снежного покрова и степень покрытия местности в баллах.